Home > Time Zones > World Clock > Weather > U.S.A. > Gary > Past weeks

Flag for U.S.A. Weather past 2 weeks in Gary, Indiana, U.S.A.

Now
38 °F

Clear.


Feels Like: 38 °F
Forecast: 39 / 50 °F
Wind: No wind

Location: Lansing Municipal Airport

Current Time: Apr 26, 2015 at 4:02:27 AM

Latest Report: Apr 26, 2015 at 3:35 AM


Visibility: 10 mi

Pressure: 29.89 "Hg

Humidity: 84%

Dew point: 33 °F

Location of GaryLocation

Historic Weather in Gary — Graph

°F

Gary temperature yesterday

Maximum temperature yesterday: 46 °F (at 3:55 PM)
Minimum temperature yesterday: 40 °F (at 11:55 PM)
Average temperature yesterday: 44 °F

Past Weeks' High & Low Weather Summary

 TemperatureHumidityPressure
High77 °F (Apr 17, 3:35 PM)94% (Apr 17, 7:15 AM)30.29 "Hg (Apr 17, 7:15 AM)
Low28 °F (Apr 24, 6:35 AM)15% (Apr 14, 2:55 PM)29.26 "Hg (Apr 20, 5:35 AM)
Average51 °F55%29.96 "Hg
* Reported Apr 11 2:15 AM — Apr 26 2:55 AM, Gary, Weather by CustomWeather, © 2015

Note: Actual official high and low records may vary slightly from our data, if they occured in-between our weather recording intervals... More about our weather records

Advertising

Gary weather history for previous 24 hours

 ConditionsComfort  
Time TempWeatherWind HumidityBarometerVisibility
2:55 AM
Sun, Apr 26
37 °FClear.3 mph87%29.87 "Hg10 mi
2:35 AM38 °FClear.6 mph86%29.87 "Hg10 mi
2:15 AM37 °FClear.3 mph84%29.87 "Hg10 mi
1:55 AM38 °FClear.3 mph83%29.86 "Hg10 mi
1:35 AM38 °FClear.No wind82%29.87 "Hg10 mi
1:15 AM38 °FClear.3 mph80%29.86 "Hg10 mi
12:55 AM39 °FClear.No wind78%29.86 "Hg10 mi
12:35 AM39 °FPassing clouds.5 mph77%29.86 "Hg10 mi
12:15 AM40 °FOvercast.6 mph77%29.85 "Hg10 mi
11:55 PM
Sat, Apr 25
40 °FOvercast.6 mph78%29.85 "Hg10 mi
11:35 PM40 °FMostly cloudy.7 mph78%29.84 "Hg10 mi
11:15 PM40 °FMostly cloudy.7 mph78%29.84 "Hg10 mi
10:15 PM41 °FOvercast.9 mph78%29.83 "Hg10 mi
9:55 PM42 °FOvercast.12 mph77%29.83 "Hg10 mi
9:35 PM42 °FOvercast.8 mph78%29.83 "Hg10 mi
9:15 PM42 °FOvercast.9 mph79%29.83 "Hg10 mi
8:55 PM42 °FOvercast.8 mph81%29.82 "Hg10 mi
8:35 PM42 °FOvercast.9 mph84%29.82 "Hg10 mi
8:15 PM43 °FOvercast.9 mph84%29.81 "Hg10 mi
7:55 PM44 °FOvercast.7 mph84%29.81 "Hg7 mi
7:35 PM45 °FOvercast.12 mph82%29.80 "Hg10 mi
7:15 PM45 °FOvercast.10 mph84%29.79 "Hg7 mi
6:55 PM44 °FDrizzle. Overcast.13 mph85%29.79 "Hg7 mi
6:35 PM44 °FLight rain. More clouds than sun.13 mph83%29.78 "Hg10 mi
6:15 PM44 °FDrizzle. More clouds than sun.12 mph81%29.78 "Hg10 mi
5:55 PM45 °FDrizzle. Overcast.9 mph82%29.77 "Hg10 mi
5:35 PM45 °FMore clouds than sun.12 mph83%29.76 "Hg10 mi
5:15 PM45 °FDrizzle. Cloudy.10 mph83%29.75 "Hg10 mi
4:15 PM46 °FOvercast.15 mph84%29.71 "Hg10 mi
3:55 PM46 °FLight rain. Overcast.14 mph83%29.69 "Hg10 mi
3:35 PM46 °FLight rain. Mostly cloudy.16 mph84%29.68 "Hg7 mi
3:15 PM45 °FLight rain. Cloudy.15 mph86%29.69 "Hg7 mi
2:55 PM45 °FRain. Mostly cloudy.15 mph89%29.70 "Hg5 mi
2:35 PM44 °FLight rain. Mostly cloudy.17 mph90%29.71 "Hg4 mi
2:15 PM44 °FLight rain. More clouds than sun.15 mph91%29.72 "Hg4 mi
1:55 PM44 °FLight rain. Cloudy.13 mph91%29.75 "Hg4 mi
1:35 PM44 °FRain. Cloudy.9 mph90%29.77 "Hg4 mi
1:15 PM44 °FHeavy rain. Mostly cloudy.6 mph89%29.79 "Hg4 mi
12:55 PM44 °FRain. Overcast.No wind87%29.80 "Hg2 mi
12:35 PM44 °FRain. Overcast.3 mph87%29.79 "Hg5 mi
12:15 PM44 °FRain. Mostly cloudy.5 mph86%29.78 "Hg7 mi
11:55 AM44 °FRain. More clouds than sun.8 mph85%29.76 "Hg7 mi
11:35 AM44 °FRain. Cloudy.9 mph84%29.75 "Hg7 mi
11:15 AM44 °FRain. Cloudy.7 mph86%29.75 "Hg5 mi
10:55 AM44 °FLight rain. More clouds than sun.10 mph84%29.73 "Hg10 mi
10:35 AM44 °FLight rain. Mostly cloudy.13 mph85%29.74 "Hg10 mi
10:15 AM44 °FOvercast.12 mph86%29.75 "Hg7 mi
9:55 AM43 °FLight rain. Mostly cloudy.13 mph86%29.76 "Hg7 mi
9:35 AM43 °FLight rain. Cloudy.15 mph86%29.75 "Hg5 mi
9:15 AM43 °FLight rain. Mostly cloudy.15 mph86%29.76 "Hg5 mi
8:55 AM42 °FLight rain. Overcast.14 mph86%29.78 "Hg5 mi
8:35 AM43 °FRain. Overcast.13 mph85%29.79 "Hg4 mi
8:15 AM42 °FLight rain. Overcast.15 mph85%29.79 "Hg7 mi
7:55 AM43 °FLight rain. Overcast.12 mph85%29.81 "Hg10 mi
7:35 AM43 °FLight rain. Overcast.13 mph85%29.81 "Hg7 mi
7:15 AM43 °FLight rain. Overcast.13 mph85%29.80 "Hg5 mi
6:55 AM43 °FRain. Overcast.9 mph84%29.81 "Hg5 mi
6:15 AM44 °FLight rain. Mostly cloudy.13 mph77%29.79 "Hg10 mi
5:55 AM45 °FLight rain. More clouds than sun.13 mph73%29.79 "Hg10 mi
5:15 AM45 °FOvercast.13 mph73%29.78 "Hg10 mi
4:55 AM45 °FOvercast.10 mph74%29.79 "Hg10 mi
4:35 AM45 °FMostly cloudy.14 mph75%29.78 "Hg10 mi
4:15 AM44 °FOvercast.10 mph77%29.79 "Hg10 mi
Weather by CustomWeather, © 2015

See weather overviewHow to use our weather pages